sat.trackr.live / text

‹ back to catalog

PUJIANG 2 (PJ-2)

NORAD 52151 · 2022-031B

PAYLOAD ACTIVE UNKNOWN

§ Identity

Operator
Country
PRC
Launch date
2022-03-29
Launch site
TAISC
Launch vehicle
Mass (kg)
RCS (m²)

External: N2YO · Heavens-Above · Gunter

§ Orbital elements

Epoch: 2026-05-25T04:55:55.187040Z

Period
96.37 min
Inclination
97.8623°
Eccentricity
0.0010134
Mean motion
14.94289589 rev/d
Perigee alt
577.5 km
Apogee alt
591.6 km
Semi-major
6,962.7 km
B*
1.0081e-4
RAAN
330.7250°
Arg perigee
281.5585°
Mean anomaly
78.4497°
Rev number
22,636

§ Raw data

PUJIANG 2 (PJ-2)1 52151U 22031B   26145.20549985  .00001024  00000+0  10081-3 0  99912 52151  97.8623 330.7250 0010134 281.5585  78.4497 14.94289589226361

JSON: /api/v1/satellites/52151 · /tle

For live sub-satellite position, see the globe view (requires WebGL).

§ Visibility from observer

Set your observer location to see the next 7 days of passes ≥ 10°. The values pass through the URL so the page stays shareable.

No JS? Fill the form by hand. The geolocation button needs JavaScript.